Wind_Speed
18 15 14 15 15 16 17 19 23 23 26 27 25 27 27 31 32 35 35 37 38 38 42 40 31 35 26 17 18 20 18 18 19 20 19 20 20 21 22 22 22 22 23 24 26 28 29
24 21 17 17 17 18 20 23 26 27 26 27 29 27 29 29 31 32 34 33 37 38 38 40 34 36 30 25 17 18 21 19 17 18 18 19 21 22 23 24 25 24 27 28 30 30 30
29 27 21 21 20 20 21 25 25 27 28 26 27 28 29 29 30 30 32 33 33 36 35 36 37 35 33 31 25 23 21 23 25 24 24 23 23 25 27 29 29 31 32 32 33 35 36
33 31 29 25 25 25 26 27 29 28 27 28 29 34 35 30 29 30 32 34 33 37 35 34 36 35 33 30 27 29 24 20 25 28 29 29 30 31 33 33 34 35 36 37 37 38 39
37 38 36 33 31 31 32 32 33 34 34 32 32 34 36 32 31 30 33 35 33 36 38 34 35 34 34 30 31 32 29 25 21 22 29 34 34 34 34 35 37 38 35 36 39 41 42
36 41 42 41 38 36 35 36 38 39 40 37 35 37 37 36 35 32 34 35 37 37 38 34 36 35 35 32 34 32 28 27 25 24 23 30 33 35 37 38 38 40 41 42 43 44 44
41 41 44 48 46 44 42 42 40 40 41 43 41 40 41 39 40 35 32 37 40 41 38 35 37 37 36 36 34 35 33 32 34 29 23 23 31 34 39 43 45 47 45 45 45 47 46
48 47 49 47 50 52 51 49 44 42 42 45 42 41 42 41 43 41 40 40 40 42 35 40 40 37 37 36 36 38 37 35 36 31 30 27 27 36 43 46 48 48 48 48 51 52 51
53 52 51 51 51 51 53 52 52 48 47 44 43 42 44 44 47 44 41 40 40 43 43 45 44 41 38 36 37 39 38 38 40 35 35 36 34 32 42 47 50 53 54 54 54 56 55
57 57 56 54 54 54 53 53 53 53 49 47 47 46 47 48 49 44 46 43 42 44 44 46 45 46 43 40 41 43 44 44 43 41 41 39 38 37 40 45 51 55 56 53 52 52 52
52 53 55 55 55 55 55 56 56 52 49 50 51 52 52 52 51 48 47 49 47 46 47 48 47 45 42 42 43 45 46 48 46 43 43 44 44 44 41 45 49 52 54 57 57 54 52
54 54 55 54 55 55 54 54 55 56 58 57 55 55 55 54 55 51 49 50 47 47 47 49 50 47 46 46 47 49 48 47 48 48 47 48 49 49 48 49 51 57 59 59 57 58 57
56 56 57 58 59 60 61 61 62 59 58 58 56 57 57 56 55 53 52 51 51 48 47 49 52 53 53 53 50 49 49 48 49 52 54 53 53 53 53 54 56 59 64 65 66 64 61
66 61 62 60 60 59 58 58 60 61 59 58 56 57 58 58 55 55 54 53 53 53 53 53 54 56 57 59 58 61 62 62 64 60 57 58 57 56 59 60 60 62 68 72 71 68 66
70 66 64 64 63 62 61 62 64 63 62 58 55 58 60 63 59 58 56 59 60 59 60 59 60 59 64 66 64 67 67 66 66 67 66 64 60 61 63 64 66 66 70 76 77 76 72
72 72 68 66 65 65 65 64 66 66 64 61 59 57 60 61 62 60 61 62 64 66 65 65 68 66 66 69 67 69 68 65 67 68 69 69 66 64 66 68 69 71 73 74 81 85 79
76 74 74 71 69 69 68 68 68 67 66 66 67 63 62 64 63 68 69 66 66 69 70 71 73 72 73 71 74 71 71 68 68 68 69 71 71 71 69 71 74 74 77 79 80 83 86
81 82 79 78 75 74 75 72 73 73 73 72 72 72 72 71 71 71 70 71 72 75 73 72 76 77 78 80 76 79 77 78 76 77 78 75 77 76 73 77 77 77 80 86 83 79 80
86 87 87 84 83 82 81 80 79 80 79 78 76 73 75 76 75 76 74 77 79 81 80 77 76 79 82 81 86 87 87 86 88 84 83 84 82 79 78 81 81 80 84 85 83 80 79
93 90 92 91 89 87 88 88 87 85 85 85 81 78 79 80 81 80 80 81 83 82 81 82 81 84 84 87 88 87 88 87 87 87 87 82 80 82 82 83 84 83 80 82 82 80 83
97 98 98 94 94 95 94 94 94 92 89 88 87 84 87 85 84 87 84 83 84 85 83 83 84 85 86 84 87 88 87 87 86 83 84 87 86 84 85 87 86 80 78 80 81 84 85
103 101 100 101 101 100 101 101 99 97 96 99 99 90 93 90 89 91 87 84 84 84 85 84 85 86 86 87 87 85 85 86 85 83 86 89 87 88 88 88 85 77 76 80 83 84 86
107 105 104 105 103 103 104 104 103 100 100 102 102 102 101 97 97 97 94 94 92 94 92 91 94 89 87 87 87 88 87 87 85 89 91 92 93 92 89 84 80 75 80 84 86 85 87
98 99 104 106 102 97 97 101 102 106 106 107 103 107 109 104 103 101 101 98 95 95 102 95 92 92 89 89 91 90 88 89 90 93 92 93 92 90 86 82 76 76 76 81 84 89 92
89 86 85 100 100 93 93 85 88 92 92 92 88 90 96 98 95 90 91 90 91 93 89 89 91 91 93 92 93 92 93 93 95 93 92 91 91 87 80 77 73 73 75 79 84 85 87
86 85 82 79 80 83 84 81 83 83 82 83 84 83 86 81 80 80 80 85 87 87 90 90 90 86 88 89 90 91 94 93 92 89 90 88 83 80 78 79 78 79 82 81 76 77 85
88 86 85 84 86 85 84 86 86 84 83 87 88 90 91 84 81 80 82 81 83 83 83 86 88 87 90 92 90 91 92 92 92 90 86 77 75 77 80 81 77 79 81 78 78 80 86
89 90 89 86 84 86 85 87 88 87 86 90 90 90 90 88 87 84 83 81 81 85 87 85 83 84 88 89 91 92 91 91 90 87 79 72 75 78 81 82 79 77 77 76 80 83 88
92 92 92 91 89 89 88 89 90 90 88 92 93 93 93 93 85 85 83 80 82 84 85 85 84 80 82 80 83 84 88 83 81 78 76 74 76 76 80 78 80 78 77 79 85 87 90
Wind_Direction
254 259 259 267 281 296 298 308 321 323 326 323 330 344 342 344 345 345 351 358 360 8 6 6 2 10 356 321 310 290 284 277 268 267 272 270 263 261 260 257 257 257 258 252 249 243 242
252 260 258 266 275 283 293 305 307 311 316 318 326 332 334 337 337 339 341 348 353 356 2 3 0 359 6 5 329 299 292 285 274 271 274 275 268 265 262 260 262 265 266 265 260 258 257
252 261 260 264 267 273 282 302 311 314 314 326 332 331 334 332 330 333 333 337 345 348 356 357 355 354 356 3 10 350 289 283 278 271 271 271 272 272 273 273 275 275 271 268 265 262 259
251 259 265 264 269 271 284 298 308 316 317 319 323 329 330 328 325 326 325 327 333 340 344 353 350 351 351 352 356 1 1 313 279 275 272 272 272 271 270 271 273 271 271 270 266 263 262
254 258 264 268 272 277 278 290 300 307 312 309 311 322 327 323 321 322 322 319 323 330 335 341 345 342 344 340 342 351 357 360 336 296 277 275 275 275 275 273 270 270 267 269 271 269 267
256 259 263 268 273 275 279 285 292 298 301 304 304 311 317 319 318 319 318 318 321 323 324 330 338 336 337 336 332 339 345 354 355 349 296 276 277 277 276 273 268 266 268 273 273 270 270
252 255 260 265 269 271 275 280 285 293 295 297 299 303 308 314 317 315 316 315 314 315 316 322 330 334 326 327 325 330 328 335 340 344 336 304 272 272 272 271 272 274 274 272 273 273 269
262 257 261 265 264 269 273 274 278 287 289 291 294 298 303 306 312 310 311 315 311 309 310 320 321 325 321 318 317 319 320 321 328 333 337 328 301 276 274 276 276 275 274 273 272 271 270
262 264 265 266 266 267 271 271 276 286 290 290 293 296 299 300 305 305 304 310 309 307 309 313 316 319 315 311 309 311 310 312 317 320 323 326 321 304 277 271 272 275 277 276 276 276 275
259 263 265 267 268 267 270 272 278 284 286 291 293 294 295 296 300 300 300 306 304 302 302 305 309 309 311 309 306 305 306 306 307 312 313 314 316 309 289 276 273 274 273 274 276 276 276
262 264 266 269 270 271 272 274 279 283 285 286 287 292 292 294 294 297 297 302 301 297 297 301 307 305 300 301 301 301 304 306 303 306 308 312 312 310 294 293 278 273 275 276 275 275 276
258 262 264 267 271 274 275 277 280 282 283 285 286 287 289 289 291 292 293 297 298 292 294 298 300 301 299 297 297 299 301 300 301 302 305 303 309 307 301 297 285 277 275 276 277 277 276
258 258 260 262 264 268 272 274 276 277 279 281 282 285 285 286 286 288 290 292 294 290 287 292 292 296 299 297 297 299 301 299 299 300 299 302 303 302 301 293 289 282 275 277 276 276 279
259 259 261 261 263 266 269 271 272 273 275 276 278 280 283 283 284 285 286 290 290 290 288 288 287 288 291 295 297 296 296 297 298 297 299 300 300 296 300 301 292 286 277 275 274 276 274
264 263 263 263 265 265 267 269 271 273 274 274 276 281 282 281 280 282 284 285 287 288 288 290 290 290 288 291 293 295 295 293 295 295 296 295 299 295 300 303 296 291 287 281 276 276 276
260 263 263 263 264 266 268 271 271 272 272 270 276 278 280 280 281 282 285 287 287 288 287 288 291 292 289 292 291 295 295 293 294 294 293 297 296 298 296 299 296 296 294 287 280 276 277
259 260 261 262 264 265 267 270 272 272 272 275 275 277 277 279 277 281 283 285 287 287 288 290 290 292 289 289 291 292 292 291 289 290 293 294 295 297 293 298 296 295 290 283 281 278 275
260 261 262 264 263 262 265 269 271 270 272 275 275 277 279 281 280 281 280 282 286 285 287 288 289 291 291 290 289 294 290 289 291 290 292 294 295 295 293 296 296 293 288 281 283 280 275
257 258 260 262 263 264 266 268 270 272 271 274 276 275 278 279 278 279 280 283 284 283 285 288 289 289 289 290 289 290 290 288 289 290 293 294 295 294 297 296 294 293 283 280 282 280 280
254 254 256 258 262 264 266 269 270 271 272 273 273 275 276 276 278 276 277 283 283 284 285 286 286 287 288 290 289 290 289 289 290 292 292 292 294 295 297 295 290 289 282 279 279 279 277
251 252 256 257 259 261 264 267 269 269 272 274 277 277 275 275 277 279 279 280 281 282 282 284 286 286 289 288 287 289 290 290 291 291 291 293 295 296 295 295 290 286 282 280 282 282 284
252 252 253 255 257 261 265 267 266 268 270 273 275 274 273 275 277 277 278 277 280 280 284 284 284 287 288 287 286 288 290 290 290 290 293 294 295 294 295 293 290 286 287 281 281 285 286
252 253 255 255 257 259 263 266 268 269 269 271 273 274 274 275 277 276 277 278 280 283 283 284 284 285 285 286 286 286 288 288 288 290 293 293 292 292 293 291 290 293 282 284 284 283 284
255 256 257 255 259 263 266 267 269 271 272 272 274 275 275 276 277 278 278 279 280 281 283 283 283 284 285 284 285 287 288 287 291 292 292 291 290 289 289 288 288 283 282 280 281 281 282
259 262 261 258 258 264 265 269 269 271 273 273 274 274 275 276 277 277 277 279 280 282 282 281 281 283 282 282 284 285 285 287 288 289 289 287 285 286 286 285 286 285 283 283 283 284 285
263 266 266 265 266 265 269 271 273 274 272 276 280 280 277 279 278 279 281 281 280 281 282 282 282 280 280 283 283 283 282 282 283 283 285 285 283 285 285 283 283 283 283 285 285 287 286
262 264 264 268 270 271 272 274 273 277 274 276 281 280 283 280 282 282 281 284 282 282 282 283 283 283 281 281 281 279 279 280 282 285 284 283 279 279 280 281 282 283 286 284 286 286 287
259 263 265 266 267 270 272 275 276 277 279 280 282 282 283 282 283 283 284 285 283 282 283 282 279 278 278 277 277 279 282 284 284 283 283 279 278 278 279 282 284 283 285 285 285 287 289
259 263 264 264 266 267 269 271 274 277 280 281 280 281 281 282 283 284 284 284 284 283 283 283 283 282 280 279 280 281 285 283 283 282 280 279 280 279 281 283 284 285 284 283 285 287 288
Height
10761 10760 10759 10759 10759 10758 10756 10755 10753 10751 10748 10746 10744 10741 10738 10735 10732 10729 10725 10721 10717 10712 10708 10703 10699 10694 10689 10687 10686 10684 10682 10681 10680 10680 10680 10680 10681 10681 10681 10682 10683 10683 10684 10684 10684 10685 10686
10756 10755 10754 10754 10754 10754 10753 10751 10749 10747 10745 10743 10741 10738 10735 10732 10729 10726 10722 10719 10716 10712 10708 10704 10700 10695 10691 10686 10683 10681 10680 10679 10677 10677 10677 10677 10677 10677 10677 10677 10677 10679 10678 10678 10678 10679 10679
10750 10750 10750 10750 10750 10749 10747 10746 10744 10742 10741 10738 10736 10734 10732 10729 10726 10723 10719 10717 10714 10711 10707 10703 10699 10694 10690 10687 10682 10678 10676 10675 10674 10673 10672 10672 10672 10672 10673 10672 10672 10671 10672 10671 10670 10671 10671
10744 10744 10745 10745 10745 10744 10743 10741 10740 10738 10737 10735 10732 10730 10728 10725 10722 10719 10716 10713 10710 10708 10705 10701 10697 10693 10690 10686 10681 10677 10673 10670 10669 10669 10668 10667 10667 10666 10666 10665 10665 10664 10664 10663 10663 10662 10662
10737 10738 10738 10739 10739 10738 10737 10736 10734 10733 10731 10730 10728 10726 10724 10721 10718 10715 10712 10709 10706 10703 10701 10697 10694 10690 10687 10684 10680 10676 10672 10668 10664 10662 10661 10661 10660 10659 10658 10657 10657 10656 10656 10654 10653 10651 10652
10729 10730 10731 10731 10731 10731 10731 10730 10728 10727 10725 10724 10723 10721 10718 10716 10713 10710 10707 10704 10701 10698 10696 10693 10690 10687 10684 10680 10676 10673 10668 10665 10662 10658 10655 10653 10652 10651 10650 10649 10649 10647 10647 10646 10643 10643 10642
10720 10721 10722 10722 10722 10722 10722 10722 10721 10719 10718 10716 10716 10714 10712 10709 10707 10704 10702 10699 10696 10693 10689 10687 10685 10681 10677 10675 10671 10668 10665 10661 10657 10653 10649 10646 10644 10643 10642 10640 10639 10637 10637 10636 10634 10631 10632
10709 10711 10712 10713 10714 10713 10713 10713 10712 10711 10709 10707 10707 10706 10705 10703 10700 10698 10695 10693 10690 10686 10682 10681 10678 10674 10671 10667 10664 10661 10659 10655 10652 10648 10644 10640 10636 10634 10632 10630 10628 10627 10625 10623 10622 10620 10620
10699 10701 10702 10703 10704 10704 10704 10704 10703 10702 10701 10699 10698 10697 10695 10694 10692 10689 10687 10685 10683 10680 10676 10671 10670 10667 10663 10660 10656 10654 10651 10648 10645 10641 10636 10633 10629 10625 10622 10620 10617 10614 10613 10610 10609 10605 10606
10688 10690 10691 10692 10692 10693 10694 10693 10693 10692 10692 10691 10689 10688 10686 10684 10682 10680 10678 10676 10674 10672 10669 10663 10661 10658 10655 10652 10648 10645 10642 10639 10635 10632 10629 10624 10620 10616 10612 10609 10606 10603 10598 10596 10594 10592 10592
10678 10681 10681 10681 10681 10681 10681 10681 10682 10682 10681 10681 10680 10678 10677 10674 10672 10670 10668 10666 10664 10662 10660 10655 10652 10648 10645 10642 10638 10636 10632 10629 10625 10622 10619 10614 10610 10606 10601 10596 10594 10590 10586 10583 10580 10578 10578
10667 10669 10670 10670 10670 10670 10670 10670 10670 10671 10670 10669 10669 10668 10666 10664 10661 10660 10658 10656 10653 10651 10649 10646 10643 10639 10636 10632 10628 10624 10621 10619 10614 10610 10607 10602 10599 10594 10591 10585 10581 10577 10573 10569 10565 10564 10564
10654 10654 10657 10658 10658 10659 10659 10659 10658 10659 10658 10658 10658 10656 10654 10652 10650 10648 10647 10645 10643 10639 10638 10636 10633 10630 10626 10622 10618 10614 10611 10607 10602 10598 10594 10590 10587 10580 10577 10573 10568 10564 10559 10553 10551 10548 10547
10636 10641 10643 10644 10644 10645 10646 10646 10646 10646 10646 10646 10645 10644 10642 10640 10638 10636 10634 10632 10630 10628 10625 10623 10621 10618 10614 10609 10607 10602 10600 10595 10589 10583 10583 10577 10576 10567 10563 10559 10554 10549 10544 10535 10532 10533 10533
10619 10626 10627 10629 10628 10630 10632 10632 10632 10633 10632 10633 10632 10632 10630 10627 10625 10623 10622 10618 10616 10613 10611 10608 10606 10605 10599 10595 10594 10589 10585 10582 10574 10566 10564 10564 10563 10555 10547 10543 10538 10536 10527 10517 10513 10510 10509
10608 10610 10612 10613 10614 10614 10616 10617 10617 10618 10618 10619 10619 10618 10615 10613 10612 10610 10608 10605 10602 10599 10597 10594 10590 10589 10585 10577 10577 10573 10571 10566 10558 10551 10545 10546 10543 10542 10533 10525 10518 10514 10509 10501 10494 10488 10491
10591 10595 10597 10598 10599 10600 10600 10601 10602 10603 10603 10603 10605 10604 10601 10599 10599 10596 10592 10590 10586 10582 10581 10580 10575 10573 10566 10567 10557 10557 10554 10548 10540 10535 10529 10523 10521 10525 10515 10508 10500 10495 10490 10481 10471 10469 10465
10575 10578 10581 10584 10585 10584 10584 10586 10586 10586 10587 10587 10589 10588 10586 10582 10584 10580 10577 10574 10571 10563 10561 10563 10560 10552 10549 10546 10546 10539 10535 10528 10525 10517 10512 10504 10501 10501 10499 10489 10482 10476 10468 10458 10450 10448 10445
10558 10562 10564 10567 10568 10567 10567 10568 10568 10568 10568 10570 10572 10572 10570 10567 10565 10563 10560 10557 10554 10546 10542 10543 10539 10532 10527 10526 10521 10519 10514 10511 10504 10498 10495 10486 10483 10476 10476 10470 10463 10456 10448 10439 10430 10427 10428
10539 10541 10544 10547 10549 10550 10549 10550 10549 10549 10549 10550 10553 10554 10552 10549 10547 10544 10545 10539 10531 10529 10526 10520 10520 10509 10507 10504 10498 10497 10493 10488 10482 10477 10471 10463 10461 10454 10449 10444 10438 10432 10425 10416 10410 10407 10400
10518 10521 10524 10527 10529 10530 10529 10529 10528 10528 10529 10529 10531 10533 10530 10532 10525 10522 10524 10522 10512 10508 10508 10500 10499 10489 10487 10483 10475 10473 10470 10465 10461 10454 10446 10441 10438 10429 10422 10416 10410 10406 10402 10395 10389 10383 10376
10497 10499 10503 10505 10507 10509 10508 10506 10506 10508 10506 10508 10508 10506 10507 10511 10506 10500 10500 10497 10491 10488 10485 10482 10473 10470 10465 10457 10454 10452 10446 10441 10439 10430 10421 10413 10410 10404 10400 10389 10385 10386 10382 10373 10367 10363 10355
10476 10478 10481 10483 10485 10487 10486 10485 10484 10484 10486 10484 10482 10484 10482 10489 10485 10480 10479 10474 10470 10461 10466 10458 10453 10448 10442 10436 10431 10426 10425 10419 10415 10408 10399 10390 10382 10376 10376 10363 10361 10368 10358 10351 10346 10339 10331
10456 10457 10460 10462 10465 10467 10465 10463 10462 10461 10462 10462 10461 10456 10455 10462 10459 10454 10453 10451 10445 10439 10436 10434 10428 10422 10420 10411 10406 10404 10400 10394 10389 10382 10376 10367 10356 10348 10346 10340 10342 10342 10339 10332 10325 10315 10310
10434 10438 10437 10441 10444 10444 10444 10443 10441 10441 10439 10438 10435 10431 10429 10435 10435 10431 10426 10423 10420 10415 10410 10408 10400 10398 10392 10386 10381 10378 10373 10367 10362 10357 10350 10340 10332 10323 10320 10318 10322 10321 10313 10308 10300 10298 10289
10415 10415 10417 10421 10421 10421 10423 10421 10420 10420 10417 10415 10411 10408 10407 10408 10411 10406 10403 10400 10395 10388 10384 10379 10374 10369 10366 10359 10352 10346 10342 10341 10338 10334 10325 10317 10308 10302 10298 10295 10299 10298 10290 10281 10277 10279 10265
10394 10397 10401 10401 10402 10402 10401 10401 10402 10401 10397 10391 10389 10386 10384 10383 10384 10382 10381 10377 10370 10364 10361 10356 10349 10346 10337 10330 10326 10322 10317 10314 10311 10309 10301 10293 10287 10282 10275 10272 10279 10272 10265 10259 10255 10251 10244
10376 10377 10379 10382 10383 10384 10382 10380 10380 10378 10376 10367 10367 10361 10360 10360 10361 10356 10355 10351 10346 10339 10333 10330 10324 10319 10310 10306 10300 10298 10296 10294 10288 10284 10277 10271 10265 10263 10255 10250 10253 10248 10243 10238 10233 10227 10220
10355 10357 10358 10362 10365 10362 10363 10360 10358 10356 10356 10345 10344 10339 10336 10336 10338 10336 10331 10325 10320 10314 10305 10300 10297 10292 10286 10281 10277 10274 10273 10270 10263 10261 10253 10248 10243 10239 10234 10230 10224 10224 10220 10214 10208 10203 10195